カタログに戻る

USA 451

運用中軍事VLEO
NORAD 62350·PAYLOAD·🇺🇸 United States

打ち上げ Dec 17, 2024 から Vandenberg Space Force Base

Loading…

次のパス (今後24時間)

TLE

古いSource: Mike McCants

元期: Aug 12, 2026, 21:26 UTC

1 62350U 24243L   26224.89364097 0.00000000  00000-0  00000-0 0    06
2 62350  70.0240 139.4536 0003000 181.0875 178.9125 14.96713608    03

AllMySatでUSA 451をリアルタイム追跡

Download on the App Store